Temp
-13 -13 -14 -14 -14 -14 -14 -14 -14 -14 -15 -14 -14 -14 -15 -15 -15 -14 -14 -15 -15 -15 -15 -15 -15 -15 -16 -16 -16 -16 -16 -16 -16 -16 -16 -16 -17 -18 -17 -18 -17 -17 -17
-14 -14 -14 -14 -14 -15 -15 -15 -15 -15 -16 -15 -15 -15 -15 -15 -15 -15 -15 -15 -15 -16 -16 -16 -16 -16 -16 -16 -17 -17 -17 -17 -17 -17 -17 -17 -18 -18 -18 -18 -18 -17 -18
-14 -14 -14 -14 -15 -15 -15 -16 -16 -16 -16 -15 -15 -15 -15 -15 -15 -15 -16 -16 -16 -16 -16 -16 -16 -16 -16 -16 -16 -17 -17 -18 -18 -18 -18 -18 -18 -19 -20 -19 -19 -19 -18
-14 -14 -14 -14 -14 -15 -15 -15 -15 -16 -15 -15 -15 -15 -15 -15 -16 -16 -16 -16 -16 -16 -17 -16 -16 -16 -16 -16 -17 -17 -17 -18 -19 -20 -20 -20 -19 -19 -19 -21 -21 -20 -19
-14 -15 -15 -15 -15 -15 -15 -15 -15 -15 -15 -15 -15 -15 -15 -15 -16 -16 -16 -17 -17 -17 -18 -18 -18 -18 -17 -18 -17 -17 -18 -18 -20 -21 -21 -22 -22 -22 -21 -20 -21 -22 -21
-15 -16 -16 -16 -16 -16 -16 -17 -16 -15 -15 -16 -16 -17 -17 -17 -17 -17 -17 -17 -17 -17 -18 -18 -19 -19 -18 -19 -19 -20 -20 -20 -21 -22 -22 -23 -23 -23 -23 -23 -22 -21 -22
-16 -16 -16 -16 -16 -16 -17 -17 -17 -17 -17 -17 -18 -18 -18 -18 -18 -18 -18 -18 -18 -18 -18 -19 -19 -20 -21 -21 -22 -23 -23 -24 -23 -23 -23 -24 -24 -24 -24 -24 -23 -23 -22
-16 -16 -16 -17 -17 -18 -17 -17 -17 -18 -18 -18 -18 -18 -19 -19 -19 -19 -19 -19 -19 -19 -19 -19 -20 -21 -23 -24 -25 -25 -25 -25 -25 -25 -25 -25 -25 -25 -25 -25 -24 -23 -23
-16 -17 -17 -18 -18 -17 -17 -17 -18 -18 -18 -18 -18 -18 -18 -19 -19 -19 -19 -20 -20 -20 -20 -21 -23 -24 -25 -25 -25 -25 -25 -26 -26 -26 -26 -26 -26 -26 -26 -25 -25 -24 -23
-17 -18 -18 -18 -17 -18 -18 -19 -19 -18 -18 -18 -18 -18 -18 -18 -19 -19 -19 -20 -20 -21 -21 -22 -23 -24 -25 -25 -26 -26 -26 -26 -26 -26 -26 -26 -26 -26 -25 -25 -25 -24 -24
-18 -18 -17 -18 -18 -18 -18 -18 -18 -18 -18 -18 -18 -18 -18 -18 -19 -20 -21 -21 -21 -21 -22 -23 -24 -25 -25 -26 -26 -26 -26 -26 -26 -26 -26 -26 -26 -25 -25 -25 -25 -24 -24
-18 -18 -18 -19 -19 -19 -19 -19 -19 -19 -19 -19 -19 -19 -19 -19 -21 -21 -21 -21 -22 -22 -23 -24 -25 -26 -26 -26 -26 -26 -26 -26 -26 -26 -26 -26 -25 -25 -25 -25 -24 -24 -24
-18 -18 -19 -19 -19 -19 -19 -19 -19 -19 -19 -20 -20 -20 -21 -21 -21 -22 -22 -23 -23 -24 -25 -26 -26 -26 -27 -27 -27 -26 -26 -26 -26 -26 -26 -26 -26 -26 -26 -25 -25 -25 -24
-18 -19 -19 -19 -19 -20 -20 -20 -20 -20 -20 -21 -22 -22 -22 -22 -22 -22 -23 -25 -25 -26 -26 -27 -27 -27 -26 -26 -26 -26 -26 -26 -27 -27 -27 -27 -27 -27 -26 -26 -26 -26 -25
-19 -19 -20 -20 -20 -20 -20 -20 -20 -21 -21 -22 -22 -22 -22 -23 -23 -23 -24 -26 -27 -27 -27 -27 -27 -27 -27 -27 -27 -27 -27 -27 -27 -27 -28 -28 -28 -29 -29 -29 -29 -29 -28
-20 -20 -21 -21 -21 -21 -21 -21 -21 -21 -21 -22 -23 -23 -23 -23 -24 -25 -27 -27 -27 -28 -28 -28 -28 -28 -28 -27 -27 -27 -27 -27 -28 -29 -30 -31 -30 -30 -31 -30 -31 -31 -30
-20 -20 -20 -20 -21 -21 -21 -21 -21 -22 -23 -23 -24 -24 -24 -26 -28 -28 -28 -28 -28 -28 -28 -28 -28 -28 -28 -28 -27 -27 -28 -28 -30 -30 -30 -30 -30 -30 -30 -30 -30 -30 -30
-20 -20 -21 -21 -21 -22 -22 -22 -23 -23 -24 -25 -24 -25 -26 -27 -28 -28 -28 -28 -28 -28 -28 -28 -28 -28 -28 -28 -28 -28 -29 -30 -30 -30 -29 -29 -29 -29 -29 -29 -29 -29 -29
-20 -21 -21 -22 -22 -23 -23 -24 -24 -24 -25 -25 -25 -27 -28 -28 -28 -28 -28 -28 -29 -28 -28 -28 -29 -29 -28 -28 -28 -29 -30 -30 -29 -29 -29 -29 -29 -29 -29 -28 -28 -28 -28
-21 -22 -22 -22 -23 -23 -24 -25 -24 -24 -25 -26 -27 -28 -29 -29 -29 -29 -29 -29 -29 -28 -29 -29 -29 -29 -28 -28 -29 -30 -30 -29 -29 -29 -29 -29 -29 -29 -29 -29 -29 -29 -29
-23 -23 -23 -24 -24 -24 -25 -25 -25 -26 -27 -28 -29 -29 -29 -29 -29 -29 -29 -29 -29 -29 -29 -29 -29 -29 -28 -29 -30 -30 -29 -29 -29 -29 -29 -29 -29 -29 -29 -29 -29 -29 -29
-22 -23 -24 -24 -25 -25 -26 -26 -26 -27 -29 -29 -29 -29 -30 -30 -29 -29 -29 -29 -30 -30 -29 -29 -30 -30 -29 -29 -30 -30 -29 -29 -29 -28 -28 -28 -28 -29 -30 -30 -30 -30 -30
-24 -25 -25 -26 -26 -26 -26 -27 -27 -29 -29 -29 -30 -30 -30 -30 -30 -30 -30 -30 -30 -30 -30 -30 -30 -30 -30 -30 -30 -30 -29 -29 -28 -28 -28 -29 -29 -29 -30 -30 -30 -30 -30
-25 -25 -25 -26 -26 -26 -26 -28 -29 -29 -29 -30 -30 -30 -30 -30 -30 -30 -30 -30 -30 -30 -30 -30 -31 -32 -31 -31 -31 -30 -30 -30 -30 -29 -29 -28 -29 -29 -29 -30 -30 -29 -29
-26 -27 -27 -27 -27 -28 -28 -29 -30 -30 -30 -30 -30 -30 -30 -30 -31 -31 -31 -31 -32 -32 -32 -32 -32 -33 -32 -31 -31 -31 -31 -31 -30 -29 -28 -28 -28 -29 -29 -29 -30 -30 -30
-27 -27 -28 -28 -28 -29 -30 -30 -30 -30 -30 -30 -31 -31 -31 -31 -31 -32 -33 -34 -35 -35 -34 -34 -33 -33 -32 -31 -31 -32 -31 -31 -30 -29 -28 -28 -28 -29 -29 -29 -29 -29 -29
Height
5800 5798 5796 5793 5790 5786 5782 5777 5771 5767 5761 5756 5751 5746 5741 5737 5731 5723 5717 5713 5710 5705 5698 5693 5690 5686 5683 5679 5675 5671 5666 5662 5659 5658 5656 5655 5655 5656 5655 5655 5658 5659 5662
5796 5794 5793 5789 5785 5781 5776 5770 5763 5756 5750 5745 5741 5735 5731 5726 5720 5712 5705 5698 5693 5688 5684 5680 5674 5670 5667 5663 5659 5654 5649 5645 5640 5637 5635 5635 5636 5632 5633 5635 5636 5638 5641
5792 5790 5789 5784 5780 5776 5771 5765 5757 5748 5741 5735 5730 5724 5719 5713 5708 5700 5694 5687 5680 5675 5669 5663 5657 5650 5646 5643 5639 5636 5632 5628 5623 5618 5614 5611 5611 5614 5613 5612 5615 5616 5619
5787 5785 5779 5775 5771 5768 5762 5756 5749 5741 5732 5725 5719 5711 5704 5697 5690 5683 5676 5671 5664 5659 5652 5645 5639 5635 5630 5625 5621 5617 5613 5609 5605 5599 5592 5589 5586 5589 5595 5595 5593 5594 5598
5777 5773 5768 5763 5759 5755 5749 5741 5734 5726 5718 5713 5708 5701 5693 5687 5680 5672 5664 5657 5650 5644 5637 5631 5625 5619 5614 5608 5603 5597 5591 5587 5582 5578 5573 5570 5568 5566 5565 5574 5577 5575 5575
5763 5759 5755 5752 5746 5741 5736 5730 5722 5714 5707 5699 5691 5684 5674 5665 5657 5651 5645 5639 5634 5626 5619 5613 5606 5599 5594 5589 5582 5575 5569 5563 5559 5556 5553 5551 5550 5550 5547 5547 5553 5554 5557
5753 5748 5745 5741 5735 5728 5722 5713 5705 5696 5689 5679 5671 5664 5658 5650 5642 5635 5628 5620 5613 5607 5603 5596 5588 5579 5572 5565 5561 5554 5551 5548 5539 5537 5536 5532 5530 5529 5529 5528 5531 5531 5534
5747 5743 5739 5732 5724 5715 5705 5697 5691 5682 5675 5668 5661 5654 5646 5637 5628 5621 5613 5606 5595 5587 5584 5577 5570 5561 5553 5549 5543 5537 5532 5528 5522 5520 5518 5515 5513 5511 5510 5509 5509 5510 5512
5743 5738 5731 5721 5712 5703 5694 5686 5680 5673 5665 5658 5651 5643 5634 5624 5613 5605 5596 5589 5581 5571 5562 5555 5549 5543 5538 5533 5526 5521 5515 5509 5505 5502 5499 5495 5494 5492 5491 5491 5491 5490 5493
5732 5724 5715 5706 5700 5694 5686 5678 5669 5660 5651 5643 5633 5626 5617 5608 5598 5586 5575 5568 5562 5554 5544 5536 5529 5522 5514 5509 5505 5501 5496 5491 5487 5483 5480 5478 5476 5473 5472 5472 5473 5474 5475
5718 5710 5702 5693 5684 5676 5669 5662 5656 5647 5639 5630 5621 5612 5601 5590 5578 5566 5557 5548 5541 5533 5526 5517 5510 5503 5497 5490 5486 5481 5477 5473 5470 5466 5462 5460 5457 5456 5454 5453 5455 5458 5458
5706 5697 5690 5682 5676 5668 5660 5653 5644 5634 5624 5615 5605 5594 5584 5574 5562 5549 5538 5528 5518 5510 5503 5496 5489 5484 5479 5474 5469 5465 5461 5457 5453 5448 5443 5441 5438 5437 5434 5433 5434 5436 5439
5694 5688 5681 5674 5667 5658 5650 5641 5630 5620 5608 5598 5587 5577 5566 5555 5544 5532 5519 5507 5497 5489 5483 5478 5473 5468 5463 5458 5453 5448 5444 5439 5434 5428 5423 5420 5415 5413 5411 5409 5409 5410 5413
5685 5677 5669 5660 5652 5642 5632 5622 5611 5599 5589 5577 5565 5554 5543 5532 5522 5511 5500 5489 5481 5473 5468 5462 5457 5452 5447 5442 5436 5431 5425 5420 5414 5407 5401 5396 5391 5388 5386 5385 5384 5384 5386
5671 5664 5655 5645 5635 5627 5615 5603 5591 5579 5566 5555 5544 5532 5521 5510 5500 5490 5481 5473 5465 5460 5454 5448 5443 5437 5431 5425 5420 5413 5407 5401 5394 5386 5379 5373 5369 5366 5364 5362 5362 5360 5362
5655 5648 5640 5629 5620 5608 5597 5584 5571 5560 5547 5535 5524 5512 5500 5489 5479 5469 5463 5457 5450 5444 5438 5433 5428 5421 5415 5408 5402 5395 5388 5380 5372 5365 5359 5356 5354 5352 5350 5349 5347 5346 5346
5645 5634 5622 5613 5602 5591 5577 5564 5552 5540 5528 5516 5503 5492 5482 5473 5465 5458 5451 5444 5438 5432 5426 5420 5413 5407 5399 5392 5385 5377 5370 5362 5356 5351 5349 5347 5345 5343 5341 5340 5338 5338 5338
5630 5619 5608 5598 5584 5571 5558 5545 5533 5520 5509 5499 5486 5474 5464 5457 5451 5444 5438 5432 5426 5420 5414 5406 5398 5392 5384 5376 5369 5362 5354 5349 5346 5344 5341 5339 5336 5333 5330 5328 5328 5328 5328
5610 5598 5587 5576 5565 5552 5540 5528 5516 5504 5492 5481 5469 5459 5451 5444 5438 5432 5425 5419 5413 5407 5399 5391 5384 5377 5370 5362 5355 5348 5343 5341 5339 5336 5331 5327 5324 5320 5316 5315 5314 5314 5315
5590 5581 5569 5557 5545 5533 5522 5511 5500 5488 5475 5462 5452 5443 5436 5429 5423 5416 5411 5406 5400 5393 5386 5378 5370 5363 5357 5350 5344 5338 5336 5335 5332 5328 5322 5316 5311 5308 5304 5302 5300 5300 5300
5577 5565 5552 5540 5530 5518 5504 5493 5481 5470 5457 5446 5438 5430 5423 5416 5411 5405 5399 5392 5386 5379 5373 5365 5357 5349 5344 5340 5334 5330 5329 5328 5324 5319 5314 5308 5302 5297 5294 5294 5292 5291 5288
5561 5549 5536 5525 5513 5503 5491 5478 5465 5452 5443 5435 5427 5419 5412 5406 5399 5392 5385 5378 5371 5365 5358 5352 5344 5337 5332 5328 5326 5324 5322 5320 5316 5311 5307 5302 5296 5290 5286 5286 5286 5285 5283
5543 5531 5519 5509 5499 5485 5474 5463 5448 5439 5432 5423 5415 5407 5400 5393 5386 5379 5371 5363 5356 5350 5344 5338 5333 5328 5323 5320 5319 5318 5316 5313 5309 5305 5302 5297 5291 5284 5281 5281 5281 5281 5279
5523 5513 5501 5491 5483 5471 5457 5446 5436 5428 5419 5411 5404 5396 5388 5380 5372 5363 5356 5347 5340 5334 5330 5325 5320 5317 5314 5314 5314 5313 5311 5307 5305 5301 5298 5294 5288 5283 5280 5279 5279 5278 5276
5506 5495 5486 5472 5459 5450 5441 5433 5424 5416 5408 5400 5392 5383 5375 5366 5357 5348 5339 5331 5323 5318 5315 5312 5309 5308 5307 5308 5309 5308 5307 5306 5303 5300 5297 5293 5289 5285 5282 5280 5278 5276 5274
5490 5481 5470 5459 5447 5438 5430 5422 5413 5406 5398 5389 5380 5371 5361 5352 5343 5333 5325 5316 5309 5303 5301 5299 5298 5299 5301 5302 5304 5304 5304 5303 5300 5298 5294 5292 5290 5287 5284 5281 5278 5275 5271
Wind_Speed
23 24 27 29 32 34 37 41 43 44 44 45 48 49 51 52 53 55 56 56 55 57 59 60 60 62 62 61 62 63 65 68 70 70 69 68 66 60 61 60 62 64 62
27 28 28 34 34 33 37 40 44 46 48 49 52 54 55 55 56 57 58 60 59 59 60 61 63 63 61 61 63 65 67 69 70 71 73 71 66 66 61 61 64 66 68
30 32 29 28 30 33 33 33 36 44 49 52 54 55 56 55 55 58 59 59 60 61 61 63 63 64 63 63 64 67 68 70 71 72 72 70 69 62 60 62 63 68 71
30 31 32 32 33 33 35 35 38 42 47 49 51 55 57 60 60 60 60 60 61 61 62 63 63 63 66 68 68 70 69 65 63 64 68 69 71 67 63 57 60 65 69
33 34 37 40 40 43 45 46 48 48 52 51 51 55 57 55 56 57 59 59 59 58 59 63 66 67 66 67 71 74 74 70 66 66 68 67 66 68 67 63 58 58 65
38 42 46 49 48 51 48 47 49 52 54 57 57 55 56 59 60 60 60 60 61 64 66 64 64 66 69 69 70 70 69 70 70 69 70 68 67 63 64 64 60 61 59
42 46 50 50 55 55 53 53 53 57 58 60 61 61 60 61 60 61 63 67 68 69 67 67 68 67 66 67 60 71 68 68 72 71 69 71 71 70 67 65 60 60 61
47 49 52 55 55 56 60 59 58 60 61 61 61 62 62 62 62 64 67 68 69 71 70 69 67 65 60 65 67 69 62 64 74 72 71 72 72 70 69 65 63 59 59
43 48 51 51 54 57 57 58 57 56 58 60 62 63 64 65 67 69 70 68 69 69 69 66 60 64 54 60 70 70 70 71 70 69 67 66 66 64 63 62 60 56 54
46 49 52 56 53 52 52 53 57 59 62 64 66 67 69 71 72 73 74 74 74 74 70 62 59 62 66 69 71 70 70 69 66 65 63 61 61 62 60 57 55 53 53
48 54 55 52 55 55 55 57 59 61 63 66 68 70 72 73 75 77 78 78 77 74 67 62 59 60 62 66 67 67 65 64 61 61 61 60 60 60 60 60 58 56 57
52 52 50 52 53 57 60 59 61 65 68 68 69 71 74 76 78 78 79 78 75 69 62 58 56 57 58 59 60 61 61 60 60 61 62 62 65 65 66 67 67 67 66
48 55 53 51 58 62 61 63 67 68 70 72 75 75 75 76 76 78 76 72 66 61 55 52 52 52 54 56 57 57 58 59 60 60 61 62 64 65 67 68 69 70 70
54 58 55 55 65 64 67 69 73 74 74 75 76 77 77 78 78 75 71 62 56 53 51 50 51 51 52 54 56 56 56 57 58 60 62 63 64 65 65 66 67 68 70
54 57 56 64 66 69 73 78 80 78 78 78 79 80 81 79 75 71 64 54 49 49 48 48 49 50 54 53 52 54 56 56 55 54 55 55 55 53 51 51 50 54 57
53 62 65 65 68 75 81 81 79 78 80 81 83 84 81 75 69 62 55 50 50 48 48 48 51 52 50 52 54 56 53 52 51 47 39 36 33 30 28 29 30 29 29
60 65 66 68 76 78 79 80 82 81 82 85 87 84 76 63 53 50 49 49 47 46 47 51 51 49 51 54 55 52 51 48 35 28 25 25 26 29 29 31 33 32 31
59 65 71 74 75 79 80 82 82 84 86 89 85 76 63 55 49 46 46 46 45 45 49 50 49 50 53 54 51 50 43 29 24 24 26 30 33 36 37 35 35 35 34
73 76 76 77 78 83 84 84 85 89 93 92 80 65 53 49 46 43 42 42 45 49 50 49 50 52 52 50 49 42 26 19 23 29 33 36 36 37 38 38 39 39 38
79 79 80 81 83 89 90 90 93 97 97 85 66 55 50 47 46 44 44 47 50 51 50 50 51 51 48 46 42 29 20 21 27 31 32 35 37 37 34 30 26 24 31
77 81 81 82 87 92 89 93 92 94 83 64 55 52 50 48 45 45 49 53 53 52 51 51 51 48 45 42 31 22 20 25 28 29 30 32 32 28 25 24 20 22 28
77 79 82 81 82 83 88 92 91 76 61 55 53 51 48 46 46 51 55 56 54 53 52 49 46 44 42 36 24 20 24 27 24 25 23 22 23 24 21 18 16 15 11
82 83 84 85 90 92 83 88 66 57 53 54 53 50 48 50 54 57 57 57 56 54 49 45 41 37 36 27 19 21 24 22 20 19 19 16 18 17 12 13 11 11 11
81 86 89 87 87 90 86 65 55 53 54 54 50 50 53 56 58 58 59 58 55 51 46 42 36 30 28 19 16 19 16 17 19 19 20 18 21 19 10 2 5 8 8
81 84 87 91 92 82 60 52 53 54 53 51 52 55 58 59 60 60 57 54 52 49 43 37 28 22 22 15 14 10 9 11 12 14 11 16 20 20 13 9 8 11 13
85 86 84 84 70 54 49 52 53 51 51 54 56 58 60 60 57 53 50 48 46 44 37 27 16 16 17 14 9 3 4 6 8 7 7 11 10 12 14 16 18 17 17
Wind_Direction
313 315 319 315 313 313 310 306 304 302 301 299 300 299 299 300 300 300 298 296 293 292 291 291 290 290 290 289 287 287 287 287 286 286 284 284 282 277 271 265 257 256 252
309 310 307 311 312 316 316 311 308 306 302 300 301 301 300 300 299 298 297 296 293 291 290 288 287 286 286 285 287 287 287 287 287 287 286 283 280 278 270 262 256 251 251
291 294 301 311 311 314 316 312 310 303 299 299 299 298 301 300 297 295 294 292 291 291 291 290 289 289 288 288 288 288 289 290 288 286 282 279 276 268 265 263 257 252 248
287 302 313 316 317 320 315 307 301 293 295 300 302 304 302 300 299 297 295 294 293 293 292 292 292 292 290 290 289 289 288 286 280 276 275 273 273 267 259 258 257 254 249
315 319 320 320 320 319 317 314 307 301 301 302 302 301 298 295 293 293 292 294 294 296 297 296 295 294 293 293 292 291 291 287 280 273 269 269 271 273 271 261 254 254 251
318 316 317 319 318 319 318 312 305 304 305 306 308 307 306 305 304 303 302 300 300 302 302 303 300 298 298 296 293 289 286 284 281 277 276 276 273 271 269 268 264 254 250
312 310 314 316 315 316 313 310 311 309 312 312 311 310 311 308 305 304 304 306 305 303 304 303 301 299 295 292 289 286 285 285 281 281 280 278 275 273 271 270 268 263 254
304 307 310 314 315 313 310 311 312 312 311 311 309 309 309 309 307 305 305 308 308 306 304 300 296 295 292 287 284 283 287 279 279 281 279 277 274 274 275 271 269 263 254
301 305 310 308 307 307 308 311 310 310 309 309 309 309 309 307 307 307 307 306 305 303 301 299 289 283 291 277 277 279 279 279 280 278 276 275 274 274 273 271 269 264 255
308 308 307 308 309 309 308 311 313 314 312 313 312 311 308 307 307 306 306 306 306 305 303 296 287 278 276 278 279 279 278 279 279 278 277 276 275 275 274 271 266 262 257
307 306 309 311 315 316 316 315 313 311 311 309 308 306 306 306 305 306 308 309 307 306 302 294 285 280 277 275 276 278 280 280 280 279 278 277 276 274 273 270 266 262 258
309 311 312 315 316 315 313 312 311 311 309 307 307 306 304 303 307 308 309 307 306 304 298 291 286 282 280 279 279 280 281 281 280 279 277 276 274 273 272 270 266 263 258
316 318 310 311 313 312 311 310 309 308 307 308 306 305 306 308 309 309 308 308 305 300 295 290 287 286 284 283 283 283 283 282 282 282 283 282 280 277 275 272 269 266 263
312 317 310 303 308 309 310 311 312 311 309 308 308 310 311 312 312 310 309 307 302 299 295 291 287 287 288 289 289 290 290 290 290 288 286 283 279 277 274 272 270 267 264
315 311 310 307 309 311 313 314 313 311 310 311 311 313 313 312 311 310 309 306 300 293 292 294 294 294 294 294 293 294 295 295 293 288 283 280 277 276 274 272 270 267 265
301 313 307 308 312 313 314 312 311 309 310 312 314 314 314 313 313 311 309 304 302 302 301 298 299 299 298 298 301 302 303 301 297 290 282 282 282 279 276 277 275 270 270
298 306 310 312 312 311 310 307 308 312 313 316 317 316 315 313 308 304 300 299 299 298 299 301 301 301 303 305 306 308 307 302 292 286 282 282 277 279 279 273 270 269 270
307 309 311 311 311 310 310 309 312 314 317 319 316 314 313 310 307 302 299 298 299 301 303 304 304 306 308 308 311 311 304 294 288 290 288 285 282 281 278 273 269 267 264
314 315 315 313 310 310 309 309 312 316 318 319 314 314 311 307 305 304 303 304 306 308 308 307 308 309 310 312 314 309 294 289 296 298 296 292 288 285 284 281 275 271 267
315 314 312 310 308 307 310 309 311 314 314 316 315 314 314 310 309 309 308 308 310 310 309 309 309 310 311 313 313 303 291 296 302 299 295 294 292 289 289 290 286 274 264
309 308 308 306 302 304 308 310 312 315 316 315 315 315 313 312 309 307 309 312 311 310 309 310 311 310 311 314 308 293 296 302 300 298 296 297 299 294 285 285 286 290 277
307 308 309 309 309 310 312 316 314 314 315 314 314 312 310 308 308 310 311 311 310 310 310 310 310 309 310 311 303 298 304 302 301 299 305 310 310 305 290 282 283 297 303
305 307 309 307 306 308 311 319 314 315 313 313 314 312 310 311 311 311 310 309 309 309 310 309 308 305 303 301 296 299 301 302 310 314 318 328 342 333 305 281 280 293 290
305 306 308 309 308 311 318 315 315 315 314 314 312 311 312 312 311 310 310 310 309 309 308 306 305 296 292 285 283 292 301 323 322 323 319 351 8 9 4 18 319 329 317
306 308 311 311 314 316 317 315 316 316 315 313 312 313 313 312 312 312 312 310 307 306 305 303 294 277 271 260 273 287 316 319 326 316 324 10 6 10 28 12 348 326 313
306 309 310 311 313 316 317 317 317 315 313 314 315 314 313 314 315 314 312 311 310 309 308 304 274 260 243 242 248 265 285 313 342 342 17 25 356 3 21 18 360 342 334